When you browse on this site, cookies collect data to enhance your experience and personalize the content and advertising you see.
Visit our Privacy Policy to learn more. By continuing to use the site, you agree to this use of cookies and data.
  • în România
  • Lista ţărilor
  • Pe 7 zile
  • Temperatura apei
  • Hartă satelitară
  • Meteo pe hartă
  • Widget-uri
  • user-avatar
    Intrare

    Meteo pe oră la Bregenz

    Astăzi, 20 Aprilie, Sâmbătă

    Timp Temperatura Precipitaţii Vânt Presiune Umiditate
    00:00 +4°C° 0 mm 2 m/s 652 mmHg 75%
    01:00 +3°C° 0 mm 3 m/s 652 mmHg 72%
    02:00 +3°C° 0 mm 2 m/s 652 mmHg 73%
    03:00 +3°C° 0 mm 2 m/s 652 mmHg 74%
    04:00 +2°C° 0 mm 2 m/s 652 mmHg 75%
    05:00 +3°C° 0 mm 2 m/s 652 mmHg 72%
    06:00 +4°C° 0 mm 2 m/s 652 mmHg 70%
    07:00 +5°C° 0 mm 2 m/s 653 mmHg 66%
    08:00 +8°C° 0 mm 2 m/s 653 mmHg 59%
    09:00 +11°C° 0 mm 1 m/s 654 mmHg 52%
    10:00 +14°C° 0 mm 1 m/s 654 mmHg 44%
    11:00 +15°C° 0 mm 1 m/s 654 mmHg 42%
    12:00 +16°C° 0 mm 2 m/s 654 mmHg 39%
    13:00 +17°C° 0 mm 2 m/s 654 mmHg 35%
    14:00 +16°C° 0 mm 2 m/s 654 mmHg 37%
    15:00 +16°C° 0 mm 2 m/s 654 mmHg 38%
    16:00 +16°C° 0 mm 2 m/s 653 mmHg 39%
    17:00 +14°C° 0 mm 2 m/s 652 mmHg 49%
    18:00 +10°C° 0 mm 2 m/s 652 mmHg 59%
    19:00 +8°C° 0 mm 2 m/s 651 mmHg 69%
    20:00 +7°C° 0 mm 2 m/s 651 mmHg 69%
    21:00 +6°C° 0 mm 2 m/s 651 mmHg 69%
    22:00 +4°C° 0 mm 2 m/s 651 mmHg 69%
    23:00 +4°C° 0 mm 2 m/s 650 mmHg 68%

    Mâine, 21 Aprilie, Duminică

    Timp Temperatura Precipitaţii Vânt Presiune Umiditate
    00:00 +3°C° 0 mm 2 m/s 650 mmHg 66%
    01:00 +3°C° 0 mm 2 m/s 650 mmHg 65%
    02:00 +3°C° 0 mm 2 m/s 650 mmHg 66%
    03:00 +3°C° 0 mm 2 m/s 649 mmHg 67%
    04:00 +2°C° 0 mm 2 m/s 649 mmHg 68%
    05:00 +3°C° 0 mm 2 m/s 649 mmHg 67%
    06:00 +4°C° 0 mm 2 m/s 649 mmHg 66%
    07:00 +4°C° 0 mm 2 m/s 649 mmHg 64%
    08:00 +8°C° 0 mm 1 m/s 649 mmHg 57%
    09:00 +11°C° 0 mm 1 m/s 649 mmHg 49%
    10:00 +14°C° 0 mm 1 m/s 650 mmHg 42%
    11:00 +15°C° 0 mm 1 m/s 650 mmHg 39%
    12:00 +16°C° 0 mm 2 m/s 650 mmHg 36%
    13:00 +17°C° 0 mm 2 m/s 650 mmHg 32%
    14:00 +17°C° 0 mm 2 m/s 649 mmHg 33%
    15:00 +17°C° 0 mm 2 m/s 649 mmHg 34%
    16:00 +17°C° 0 mm 2 m/s 648 mmHg 35%
    17:00 +14°C° 0 mm 2 m/s 648 mmHg 46%
    18:00 +12°C° 0 mm 2 m/s 647 mmHg 56%
    19:00 +9°C° 0 mm 2 m/s 646 mmHg 66%
    20:00 +8°C° 0 mm 2 m/s 646 mmHg 65%
    21:00 +7°C° 0 mm 2 m/s 646 mmHg 64%
    22:00 +6°C° 0 mm 2 m/s 646 mmHg 62%
    23:00 +5°C° 0 mm 2 m/s 645 mmHg 64%

    Poimâine, 22 Aprilie, Luni

    Timp Temperatura Precipitaţii Vânt Presiune Umiditate
    00:00 +5°C° 0 mm 2 m/s 645 mmHg 65%
    01:00 +4°C° 0 mm 2 m/s 645 mmHg 66%
    02:00 +4°C° 0 mm 2 m/s 644 mmHg 67%
    03:00 +4°C° 0 mm 2 m/s 644 mmHg 67%
    04:00 +3°C° 0 mm 2 m/s 644 mmHg 68%
    05:00 +4°C° 0 mm 2 m/s 643 mmHg 67%
    06:00 +5°C° 0 mm 2 m/s 643 mmHg 66%
    07:00 +5°C° 0 mm 2 m/s 643 mmHg 65%
    08:00 +8°C° 0 mm 2 m/s 643 mmHg 57%
    09:00 +12°C° 0 mm 1 m/s 643 mmHg 50%
    10:00 +14°C° 0 mm 1 m/s 643 mmHg 42%
    11:00 +15°C° 0 mm 2 m/s 643 mmHg 40%
    12:00 +16°C° 0 mm 2 m/s 643 mmHg 38%
    13:00 +18°C° 0 mm 2 m/s 643 mmHg 35%
    14:00 +17°C° 0 mm 2 m/s 642 mmHg 38%
    15:00 +17°C° 0 mm 2 m/s 641 mmHg 40%
    16:00 +17°C° 0 mm 2 m/s 641 mmHg 42%
    17:00 +15°C° 0 mm 2 m/s 640 mmHg 51%
    18:00 +13°C° 0 mm 2 m/s 639 mmHg 59%
    19:00 +10°C° 0 mm 2 m/s 638 mmHg 68%
    20:00 +9°C° 0 mm 2 m/s 638 mmHg 67%
    21:00 +8°C° 0 mm 2 m/s 638 mmHg 66%
    22:00 +7°C° 0 mm 3 m/s 637 mmHg 65%
    23:00 +6°C° 0 mm 2 m/s 637 mmHg 66%

    23 Aprilie, Marţi

    Timp Temperatura Precipitaţii Vânt Presiune Umiditate
    00:00 +6°C° 0 mm 2 m/s 637 mmHg 67%
    01:00 +6°C° 0 mm 2 m/s 636 mmHg 68%
    02:00 +6°C° 0 mm 2 m/s 636 mmHg 69%
    03:00 +5°C° 0 mm 2 m/s 636 mmHg 71%
    04:00 +5°C° 0 mm 2 m/s 635 mmHg 72%
    05:00 +6°C° 0 mm 2 m/s 635 mmHg 71%
    06:00 +6°C° 0 mm 2 m/s 635 mmHg 70%
    07:00 +7°C° 0 mm 2 m/s 635 mmHg 69%
    08:00 +10°C° 0 mm 1 m/s 636 mmHg 63%
    09:00 +12°C° 0 mm 1 m/s 636 mmHg 57%
    10:00 +14°C° 0 mm 1 m/s 636 mmHg 50%
    11:00 +15°C° 0 mm 1 m/s 637 mmHg 47%
    12:00 +16°C° 0 mm 1 m/s 637 mmHg 45%
    13:00 +19°C° 0 mm 1 m/s 637 mmHg 42%
    14:00 +18°C° 0 mm 1 m/s 637 mmHg 43%
    15:00 +18°C° 0 mm 1 m/s 637 mmHg 44%
    16:00 +18°C° 0 mm 1 m/s 637 mmHg 45%
    17:00 +15°C° 0 mm 2 m/s 636 mmHg 53%
    18:00 +13°C° 0 mm 2 m/s 636 mmHg 61%
    19:00 +10°C° 0 mm 2 m/s 636 mmHg 69%
    20:00 +9°C° 0 mm 2 m/s 636 mmHg 69%
    21:00 +8°C° 0 mm 3 m/s 636 mmHg 69%
    22:00 +7°C° 0 mm 3 m/s 637 mmHg 69%
    23:00 +7°C° 0 mm 3 m/s 637 mmHg 71%

    24 Aprilie, Miercuri

    Timp Temperatura Precipitaţii Vânt Presiune Umiditate
    00:00 +5°C° 0 mm 3 m/s 637 mmHg 72%
    01:00 +6°C° 0 mm 2 m/s 637 mmHg 73%
    02:00 +6°C° 0 mm 2 m/s 638 mmHg 74%
    03:00 +5°C° 0 mm 2 m/s 638 mmHg 75%
    04:00 +5°C° 0 mm 2 m/s 638 mmHg 76%
    05:00 +6°C° 0 mm 2 m/s 639 mmHg 74%
    06:00 +7°C° 0 mm 2 m/s 639 mmHg 72%
    07:00 +8°C° 0 mm 2 m/s 640 mmHg 70%
    08:00 +10°C° 0 mm 2 m/s 641 mmHg 62%
    09:00 +13°C° 0 mm 2 m/s 642 mmHg 54%
    10:00 +14°C° 0 mm 3 m/s 643 mmHg 47%
    11:00 +16°C° 0 mm 3 m/s 643 mmHg 43%
    12:00 +17°C° 0 mm 4 m/s 643 mmHg 40%
    13:00 +17°C° 0 mm 4 m/s 643 mmHg 37%
    14:00 +17°C° 0 mm 4 m/s 643 mmHg 38%
    15:00 +17°C° 0 mm 4 m/s 643 mmHg 39%
    16:00 +17°C° 0 mm 4 m/s 642 mmHg 40%
    17:00 +14°C° 0 mm 4 m/s 642 mmHg 46%
    18:00 +12°C° 0 mm 3 m/s 642 mmHg 51%
    19:00 +10°C° 0 mm 3 m/s 642 mmHg 57%
    20:00 +9°C° 0 mm 2 m/s 642 mmHg 66%
    21:00 +7°C° 0 mm 2 m/s 643 mmHg 75%
    22:00 +7°C° 0 mm 1 m/s 643 mmHg 84%
    23:00 +6°C° 0 mm 1 m/s 643 mmHg 85%

    25 Aprilie, Joi

    Timp Temperatura Precipitaţii Vânt Presiune Umiditate
    00:00 +6°C° 0 mm 1 m/s 644 mmHg 87%
    01:00 +5°C° 0 mm 1 m/s 644 mmHg 88%
    02:00 +4°C° 0 mm 2 m/s 644 mmHg 88%
    03:00 +4°C° 0 mm 2 m/s 644 mmHg 88%
    04:00 +4°C° 0 mm 2 m/s 644 mmHg 87%
    05:00 +5°C° 0 mm 2 m/s 644 mmHg 82%
    06:00 +6°C° 0 mm 2 m/s 644 mmHg 76%
    07:00 +7°C° 0 mm 2 m/s 644 mmHg 71%
    08:00 +10°C° 0 mm 3 m/s 645 mmHg 61%
    09:00 +12°C° 0 mm 3 m/s 645 mmHg 50%
    10:00 +14°C° 0 mm 3 m/s 646 mmHg 40%
    11:00 +16°C° 0 mm 3 m/s 646 mmHg 36%
    12:00 +17°C° 0 mm 4 m/s 646 mmHg 33%
    13:00 +18°C° 0 mm 4 m/s 646 mmHg 30%
    14:00 +18°C° 0 mm 4 m/s 646 mmHg 32%
    15:00 +18°C° 0 mm 4 m/s 645 mmHg 34%
    16:00 +18°C° 0 mm 3 m/s 645 mmHg 37%
    17:00 +16°C° 0 mm 3 m/s 645 mmHg 44%
    18:00 +13°C° 0 mm 3 m/s 644 mmHg 52%
    19:00 +11°C° 0 mm 3 m/s 644 mmHg 59%
    20:00 +9°C° 0 mm 3 m/s 644 mmHg 63%
    21:00 +8°C° 0 mm 3 m/s 644 mmHg 67%
    22:00 +7°C° 0 mm 3 m/s 644 mmHg 72%
    23:00 +6°C° 0.2 mm 2 m/s 644 mmHg 77%
    Arată mai mult